FW0058 Weather Reports


Display with metric or nautical units.
time (UTC)temp
F
wind
direction
speed
MPH
gust
MPH
rain 1hr
in
rain 24hr
in
rain mn
in
humidity
%
barometer
mb
20260507231512 73 130 6.0 11.0 0.00 0.00 0.00 65 1013.1
20260507230021 74 190 6.0 12.0 0.00 0.00 0.00 62 1013.0
20260507224512 75 153 5.0 12.0 0.00 0.00 0.00 61 1013.2
20260507223003 75 169 5.0 12.0 0.00 0.00 0.00 59 1013.3
20260507221502 75 171 6.0 11.0 0.00 0.00 0.00 61 1013.3
20260507220100 75 206 6.0 10.0 0.00 0.00 0.00 59 1013.6
20260507214559 75 133 5.0 14.0 0.00 0.00 0.00 60 1013.7
20260507213100 75 186 5.0 11.0 0.00 0.00 0.00 61 1013.9
20260507211556 75 196 4.0 12.0 0.00 0.00 0.00 60 1014.0
20260507210054 75 165 5.0 10.0 0.00 0.00 0.00 60 1014.0
20260507204552 75 165 3.0 11.0 0.00 0.00 0.00 60 1014.2
20260507203022 75 165 4.0 12.0 0.00 0.00 0.00 60 1014.3
20260507201533 75 205 5.0 12.0 0.00 0.00 0.00 62 1014.3
20260507200049 74 132 5.0 14.0 0.00 0.00 0.00 62 1014.5
20260507194548 74 101 7.0 15.0 0.00 0.00 0.00 62 1014.6
20260507193045 76 184 3.0 12.0 0.00 0.00 0.00 59 1014.7
20260507191544 76 170 2.0 8.0 0.00 0.00 0.00 59 1014.8
20260507190042 76 175 4.0 9.0 0.00 0.00 0.00 60 1014.9
20260507184537 75 155 3.0 8.0 0.00 0.00 0.00 61 1015.1
20260507183048 74 192 6.0 10.0 0.00 0.00 0.00 62 1015.3
20260507181533 74 146 3.0 10.0 0.00 0.00 0.00 63 1015.2
20260507180043 74 117 4.0 7.0 0.00 0.00 0.00 63 1015.3
20260507174528 73 76 2.0 6.0 0.00 0.00 0.00 63 1015.4
20260507173027 72 155 4.0 8.0 0.00 0.00 0.00 65 1015.5
20260507171517 71 55 1.0 6.0 0.00 0.00 0.00 67 1015.5
20260507170031 70 78 1.0 5.0 0.00 0.00 0.00 66 1015.6
20260507164512 69 70 2.0 5.0 0.00 0.00 0.00 69 1015.6
20260507163008 69 140 1.0 6.0 0.00 0.00 0.00 72 1015.7
20260507161505 67 299 0.0 6.0 0.00 0.00 0.00 76 1015.7
20260507160101 66 120 1.0 5.0 0.00 0.00 0.00 78 1015.8
20260507154602 64 49 0.0 6.0 0.00 0.00 0.00 80 1016.0
20260507153026 63 30 1.0 5.0 0.00 0.00 0.00 82 1016.0
20260507151523 62 108 0.0 2.0 0.00 0.00 0.00 85 1016.1
20260507150019 61 103 0.0 4.0 0.00 0.00 0.00 85 1016.1
20260507144518 61 117 0.0 4.0 0.00 0.00 0.00 86 1016.1
20260507143017 60 165 0.0 1.0 0.00 0.00 0.00 85 1015.9
20260507141516 59 115 0.0 0.0 0.00 0.00 0.00 85 1015.8
20260507140015 59 95 1.0 2.0 0.00 0.00 0.00 85 1015.7
20260507134514 58 69 0.0 0.0 0.00 0.00 0.00 85 1015.5
20260507133014 58 105 0.0 0.0 0.00 0.00 0.00 86 1015.4
20260507131513 57 105 0.0 0.0 0.00 0.00 0.00 85 1015.3
20260507130010 58 105 0.0 0.0 0.00 0.00 0.00 85 1015.2
20260507124509 58 128 0.0 0.0 0.00 0.00 0.00 85 1015.1
20260507123010 58 128 0.0 0.0 0.00 0.00 0.00 85 1015.0
20260507121507 58 227 0.0 0.0 0.00 0.00 0.00 85 1015.1
20260507120003 58 227 0.0 0.0 0.00 0.00 0.00 84 1015.1
20260507114501 59 227 0.0 0.0 0.00 0.00 0.00 84 1015.2
20260507113100 59 257 0.0 0.0 0.00 0.00 0.00 84 1015.2
20260507111559 59 257 0.0 1.0 0.00 0.00 0.00 84 1015.2
20260507104601 59 257 0.0 1.0 0.00 0.00 0.00 83 1015.4
20260507103122 60 267 0.0 0.0 0.00 0.00 0.00 83 1015.5
20260507101551 60 284 0.0 0.0 0.00 0.00 0.00 83 1015.4
20260507100103 60 281 0.0 0.0 0.00 0.00 0.00 83 1015.5
20260507094548 60 280 0.0 0.0 0.00 0.00 0.00 83 1015.6
20260507093044 60 314 0.0 0.0 0.00 0.00 0.00 82 1015.7
20260507091546 60 286 0.0 2.0 0.00 0.00 0.00 82 1015.9
20260507090048 60 284 0.0 2.0 0.00 0.00 0.00 81 1016.0
20260507084532 61 271 1.0 6.0 0.00 0.00 0.00 81 1016.3
20260507083008 61 251 1.0 6.0 0.00 0.00 0.00 80 1016.4
20260507081505 61 274 0.0 5.0 0.00 0.00 0.00 79 1016.4
20260507080004 61 295 0.0 5.0 0.00 0.00 0.00 79 1016.4
20260507074505 62 261 0.0 6.0 0.00 0.00 0.00 79 1016.4
20260507073001 62 279 0.0 5.0 0.00 0.00 0.00 78 1016.4
20260507071530 62 273 1.0 4.0 0.00 0.00 0.00 77 1016.4
20260507070037 62 259 0.0 4.0 0.00 0.00 0.00 77 1016.5
20260507064526 62 261 2.0 4.0 0.00 0.00 0.00 76 1016.6
20260507063026 62 277 1.0 3.0 0.00 0.00 0.00 76 1016.7
20260507061525 63 255 0.0 4.0 0.00 0.00 0.00 75 1016.7
20260507060025 63 237 2.0 5.0 0.00 0.00 0.00 74 1016.7
20260507054522 63 329 0.0 5.0 0.00 0.00 0.00 73 1016.8
20260507053024 64 274 0.0 5.0 0.00 0.00 0.00 72 1016.7
20260507051522 64 288 1.0 7.0 0.00 0.00 0.00 72 1016.6
20260507050037 63 279 3.0 6.0 0.00 0.00 0.00 73 1016.5
20260507044519 63 240 0.0 5.0 0.00 0.00 0.00 75 1016.5
20260507043019 63 175 0.0 0.0 0.00 0.00 0.00 76 1016.4
20260507041518 63 186 0.0 4.0 0.00 0.00 0.00 76 1016.3
20260507040018 64 151 1.0 4.0 0.00 0.00 0.00 76 1016.2
20260507034520 64 142 1.0 5.0 0.00 0.00 0.00 75 1016.1
20260507033017 64 180 0.0 5.0 0.00 0.00 0.00 75 1015.9
20260507031515 64 161 0.0 5.0 0.00 0.00 0.00 74 1015.8
20260507030017 65 193 1.0 5.0 0.00 0.00 0.00 73 1015.6
20260507024514 65 148 3.0 7.0 0.00 0.00 0.00 72 1015.4
20260507023012 66 167 3.0 8.0 0.00 0.00 0.00 71 1015.3
20260507021511 66 146 2.0 9.0 0.00 0.00 0.00 70 1015.3
20260507020012 67 200 5.0 9.0 0.00 0.00 0.00 68 1015.2
20260507014509 68 212 5.0 10.0 0.00 0.00 0.00 66 1015.1
20260507013008 68 179 5.0 11.0 0.00 0.00 0.00 65 1015.0
20260507011508 69 152 5.0 11.0 0.00 0.00 0.00 64 1014.9
20260507010011 69 239 4.0 12.0 0.00 0.00 0.00 63 1014.9
20260507004505 70 155 6.0 11.0 0.00 0.00 0.00 61 1014.8
20260507003005 71 163 5.0 11.0 0.00 0.00 0.00 61 1014.8
20260507001505 71 200 5.0 11.0 0.00 0.00 0.00 59 1014.8
20260507000007 72 161 5.0 10.0 0.00 0.00 0.00 57 1014.7
20260506234501 72 186 5.0 12.0 0.00 0.00 0.00 58 1014.7
20260506233100 73 196 5.0 10.0 0.00 0.00 0.00 56 1014.7